TimeMST,TemperatureF,Dew PointF,Humidity,Sea Level PressureIn,VisibilityMPH,Wind Direction,Wind SpeedMPH,Gust SpeedMPH,PrecipitationIn,Events,Conditions,WindDirDegrees,DateUTC
12:53 AM,17.1,14.0,88,30.41,10.0,Calm,Calm,-,N/A,,Overcast,0,2012-11-15 07:53:00
1:53 AM,14.0,12.0,92,30.39,10.0,SE,4.6,-,N/A,,Mostly Cloudy,140,2012-11-15 08:53:00
2:53 AM,10.9,8.1,88,30.41,10.0,SE,5.8,-,N/A,,Clear,130,2012-11-15 09:53:00
3:53 AM,9.0,6.1,88,30.43,10.0,East,3.5,-,N/A,,Clear,90,2012-11-15 10:53:00
4:53 AM,9.0,6.1,88,30.44,10.0,SE,3.5,-,N/A,,Clear,130,2012-11-15 11:53:00
5:53 AM,8.1,3.9,83,30.46,10.0,ESE,3.5,-,N/A,,Clear,110,2012-11-15 12:53:00
6:53 AM,7.0,5.0,92,30.47,10.0,South,3.5,-,N/A,,Clear,170,2012-11-15 13:53:00
7:43 AM,6.8,3.2,85,30.27,1.8,Calm,Calm,-,N/A,,Clear,0,2012-11-15 14:43:00
7:51 AM,6.8,3.2,85,30.28,3.0,Calm,Calm,-,N/A,,Clear,0,2012-11-15 14:51:00
7:53 AM,6.1,1.9,83,30.51,5.0,Calm,Calm,-,N/A,,Clear,0,2012-11-15 14:53:00
7:58 AM,6.8,3.2,85,30.27,1.0,Calm,Calm,-,N/A,,Mist,0,2012-11-15 14:58:00
8:06 AM,6.8,3.2,85,30.27,0.5,Calm,Calm,-,N/A,Fog,Light Freezing Fog,0,2012-11-15 15:06:00
8:22 AM,5.0,1.4,85,30.28,3.0,East,4.6,-,N/A,,Partly Cloudy,100,2012-11-15 15:22:00
8:53 AM,9.0,7.0,92,30.52,10.0,Calm,Calm,-,N/A,,Clear,0,2012-11-15 15:53:00
9:53 AM,12.0,10.0,92,30.51,10.0,Calm,Calm,-,N/A,,Clear,0,2012-11-15 16:53:00
10:53 AM,19.9,16.0,85,30.46,9.0,Calm,Calm,-,N/A,,Clear,0,2012-11-15 17:53:00
11:53 AM,27.0,19.0,72,30.40,10.0,Calm,Calm,-,N/A,,Clear,0,2012-11-15 18:53:00
12:53 PM,28.9,19.0,67,30.35,10.0,NNW,3.5,-,N/A,,Clear,340,2012-11-15 19:53:00
1:53 PM,34.0,21.0,59,30.31,9.0,North,3.5,-,N/A,,Clear,10,2012-11-15 20:53:00
2:53 PM,34.0,21.0,59,30.31,10.0,Calm,Calm,-,N/A,,Clear,0,2012-11-15 21:53:00
3:53 PM,34.0,19.9,56,30.31,10.0,Calm,Calm,-,N/A,,Clear,0,2012-11-15 22:53:00
4:53 PM,32.0,19.0,59,30.31,10.0,Calm,Calm,-,N/A,,Clear,0,2012-11-15 23:53:00
5:53 PM,28.0,19.0,69,30.33,10.0,Calm,Calm,-,N/A,,Clear,0,2012-11-16 00:53:00
6:53 PM,18.0,14.0,84,30.36,10.0,SE,4.6,-,N/A,,Clear,140,2012-11-16 01:53:00
7:53 PM,16.0,12.9,88,30.36,10.0,SE,4.6,-,N/A,,Clear,130,2012-11-16 02:53:00
8:53 PM,10.9,7.0,84,30.35,10.0,Calm,Calm,-,N/A,,Clear,0,2012-11-16 03:53:00
9:53 PM,10.9,8.1,88,30.32,10.0,Calm,Calm,-,N/A,,Clear,0,2012-11-16 04:53:00
10:53 PM,12.0,7.0,80,30.28,10.0,Calm,Calm,-,N/A,,Clear,0,2012-11-16 05:53:00
11:53 PM,10.0,6.1,84,30.25,10.0,SSE,4.6,-,N/A,,Clear,150,2012-11-16 06:53:00